Location: Prague
(50.0830°N, 14.4670°E)
Time: 02:53:58
(UTC+01:00)

AO-7 - Pass Details

Date: 12 December 2021
Orbit: 1440 x 1459 km, 101.9° (Epoch: 28 January)

Event Time Altitude Azimuth Distance (km) Brightness Sun altitude
Rises 17:14:26 0° 219° (SW) 4,523 ? -11.2°
Reaches altitude 10° 17:18:43 10° 240° (WSW) 3,550 ? -11.9°
Maximum altitude 17:23:25 16° 275° (W) 3,102 ? -12.6°
Drops below altitude 10° 17:28:09 10° 311° (NW) 3,563 ? -13.3°
Sets 17:32:31 0° 332° (NNW) 4,548 ? -13.9°
